Flag for China Weather past 2 weeks in Xiamen, Fujian, China

Now
91 °F

Sunny.


Feels Like: 97 °F
Forecast: 78 / 93 °F
Wind: 8 mph from Southwest

Location: Xiamen Airport

Current Time: Aug 3, 2015 at 6:52:09 PM

Latest Report: Aug 3, 2015 at 6:00 PM


Visibility: 10 mi

Pressure: 29.74 "Hg

Humidity: 49%

Dew point: 70 °F

Location of XiamenLocation

Historic Weather in Xiamen — Graph

°F

Xiamen temperature yesterday

Maximum temperature yesterday: 97 °F (at 2:00 PM)
Minimum temperature yesterday: 79 °F (at 5:00 AM)
Average temperature yesterday: 87 °F

Past Weeks' High & Low Weather Summary

 TemperatureHumidityPressure
High97 °F (Aug 2, 2:00 PM)100% (Jul 19, 6:00 PM)29.95 "Hg (Jul 19, 6:00 PM)
Low77 °F (Jul 20, 12:00 AM)32% (Aug 2, 2:00 PM)29.59 "Hg (Jul 19, 5:00 PM)
Average83 °F81%29.81 "Hg
* Reported Jul 19 5:00 PM — Aug 3 5:00 PM, Xiamen, Weather by CustomWeather, © 2015

Note: Actual official high and low records may vary slightly from our data, if they occured in-between our weather recording intervals... More about our weather records

Advertising

Xiamen weather history for previous 24 hours

 ConditionsComfort  
Time TempWeatherWind HumidityBarometerVisibility
5:00 PM
Mon, Aug 3
93 °FSunny.8 mph49%29.74 "Hg10 mi
4:00 PM93 °FPassing clouds.10 mph49%29.77 "HgN/A
3:00 PM93 °FPassing clouds.10 mph59%29.77 "HgN/A
2:00 PM93 °FPassing clouds.10 mph63%29.80 "HgN/A
1:00 PM93 °FPassing clouds.8 mph59%29.80 "HgN/A
12:00 PM91 °FScattered clouds.3 mph71%29.83 "HgN/A
11:00 AM90 °FPassing clouds.6 mph71%29.86 "Hg6 mi
10:00 AM90 °FPassing clouds.1 mph71%29.86 "Hg4 mi
9:00 AM86 °FScattered clouds.3 mph79%29.86 "Hg5 mi
8:00 AM84 °FScattered clouds.3 mph84%29.86 "Hg5 mi
7:00 AM82 °FClear.3 mph89%29.86 "Hg5 mi
6:00 AM81 °FScattered clouds.3 mph94%29.86 "Hg6 mi
5:00 AM81 °FClear.1 mph94%29.83 "Hg5 mi
4:00 AM82 °FClear.1 mph84%29.83 "Hg10 mi
3:00 AM82 °FClear.1 mph84%29.83 "Hg10 mi
2:00 AM82 °FClear.1 mph89%29.83 "Hg10 mi
1:00 AM82 °FClear.3 mph89%29.83 "Hg10 mi
12:00 AM82 °FClear.6 mph89%29.86 "Hg10 mi
11:00 PM
Sun, Aug 2
82 °FClear.3 mph89%29.86 "Hg10 mi
10:00 PM86 °FClear.1 mph70%29.86 "Hg10 mi
9:00 PM86 °FPassing clouds.6 mph59%29.83 "HgN/A
8:00 PM88 °FClear.3 mph55%29.80 "Hg10 mi
7:00 PM90 °FClear.6 mph52%29.80 "Hg10 mi
6:00 PM91 °FPassing clouds.8 mph49%29.77 "HgN/A
Weather by CustomWeather, © 2015

See weather overviewHow to use our weather pages